Weather History for Park Rapids, MN

Change the Weather History Date:

Wednesday, December 11, 2013

  Actual Average Record
Temperature  
Mean Temperature -16 °F -  
Max Temperature -6 °F 23 °F 44 °F (2011)
Min Temperature -25 °F 2 °F -25 °F (2013)
Degree Days  
Heating Degree Days 80    
Moisture  
Dew Point -17 °F    
Average Humidity 80    
Maximum Humidity 96    
Minimum Humidity 68    
Precipitation  
Precipitation 0.00 in - - ()
Sea Level Pressure  
Sea Level Pressure 30.39 in    
Wind  
Wind Speed 7 mph (SW)    
Max Wind Speed 13 mph    
Max Gust Speed -    
Visibility 8 miles    
Events Snow    
Averages and records for this station are not official NWS values.
T = Trace of Precipitation, MM = Missing Value Source: NWS Daily Summary

Daily Weather History Graph

Daily Weather History Graph

Search for Another Location

Airport:

Trip Planner

Search our weather history database for the weather conditions in past years. The results will help you decide how hot, cold, wet, or windy it might be!

Date:

Astronomy

Dec. 11, 2013 Rise Set
Actual Time 7:55 AM CST 4:31 PM CST
Civil Twilight 7:20 AM CST 5:06 PM CST
Nautical Twilight 6:42 AM CST 5:45 PM CST
Astronomical Twilight 6:05 AM CST 6:22 PM CST
Moon 1:21 PM CST (12/11) 2:00 AM CST (12/11)
Length of Visible Light 9h 46m
Length of Day
8h 35m
Waxing Gibbous, 72% of the Moon is Illuminated
Dec 11
Waxing Gibbous
Dec 17
Full
Dec 25
Last Quarter
Jan 1
New
Jan 7
First Quarter

Hourly Weather History & Observations

Time (CST) Temp. Windchill Dew Point Humidity Pressure Visibility Wind Dir Wind Speed Gust Speed Precip Events Conditions
12:53 AM -16.1 °F -38.2 °F -20.9 °F 79% 30.39 in 10.0 mi WNW 12.7 mph - N/A   Clear
1:53 AM -18.0 °F -36.1 °F -22.0 °F 82% 30.43 in 10.0 mi WNW 8.1 mph - N/A   Clear
2:53 AM -20.0 °F -38.6 °F -23.1 °F 86% 30.45 in 10.0 mi West 8.1 mph - N/A   Clear
3:53 AM -20.0 °F -37.1 °F -24.0 °F 82% 30.47 in 10.0 mi West 6.9 mph - N/A   Clear
4:53 AM -24.0 °F -35.2 °F -27.9 °F 82% 30.49 in 10.0 mi West 3.5 mph - N/A   Clear
5:53 AM -20.9 °F -34.3 °F -25.1 °F 81% 30.50 in 10.0 mi West 4.6 mph - N/A   Clear
6:53 AM -25.1 °F -41.3 °F -27.9 °F 86% 30.52 in 10.0 mi West 5.8 mph - 0.00 in   Clear
7:53 AM -24.0 °F -37.9 °F -29.9 °F 74% 30.54 in 10.0 mi SW 4.6 mph - N/A   Clear
8:53 AM -24.0 °F - -26.0 °F 90% 30.56 in 10.0 mi Calm Calm - N/A   Clear
9:53 AM -18.0 °F -28.5 °F -18.9 °F 96% 30.57 in 10.0 mi WSW 3.5 mph - N/A   Clear
10:09 AM -17.0 °F -29.7 °F -20.0 °F 86% 30.39 in 2.5 mi WSW 4.6 mph - N/A   Clear
10:18 AM -16.1 °F -28.6 °F -18.0 °F 91% 30.39 in 10.0 mi West 4.6 mph - N/A   Clear
10:53 AM -15.0 °F -27.4 °F -20.0 °F 78% 30.55 in 10.0 mi West 4.6 mph - N/A   Clear
11:53 AM -11.0 °F -20.4 °F -15.0 °F 83% 30.52 in 10.0 mi WSW 3.5 mph - N/A   Clear
12:53 PM -9.0 °F -26.4 °F -15.0 °F 75% 30.50 in 10.0 mi WSW 9.2 mph - N/A   Clear
1:53 PM -8.0 °F -22.5 °F -15.0 °F 71% 30.50 in 10.0 mi SW 6.9 mph - N/A   Clear
2:53 PM -8.0 °F -26.1 °F -16.1 °F 68% 30.48 in 10.0 mi SW 10.4 mph - N/A   Clear
3:53 PM -9.9 °F -27.5 °F -18.0 °F 68% 30.47 in 10.0 mi SW 9.2 mph - N/A   Clear
4:53 PM -9.9 °F -24.9 °F -17.0 °F 71% 30.46 in 10.0 mi SSW 6.9 mph - N/A   Clear
5:53 PM -9.9 °F -24.9 °F -17.0 °F 71% 30.41 in 10.0 mi South 6.9 mph - N/A   Scattered Clouds
6:53 PM -9.9 °F -26.3 °F -16.1 °F 74% 30.41 in 10.0 mi SSW 8.1 mph - N/A   Scattered Clouds
7:53 PM -9.0 °F -23.8 °F -15.0 °F 75% 30.39 in 10.0 mi SSW 6.9 mph - N/A   Overcast
8:53 PM -7.1 °F -19.9 °F -11.9 °F 79% 30.35 in 3.0 mi South 5.8 mph - 0.00 in Snow Light Snow
9:00 PM -7.1 °F -18.1 °F -11.9 °F 79% 30.18 in 2.0 mi South 4.6 mph - 0.00 in Snow Light Snow
9:14 PM -7.1 °F -18.1 °F -11.9 °F 79% 30.18 in 3.0 mi SE 4.6 mph - 0.00 in Snow Light Snow
9:49 PM -7.6 °F -22.1 °F -11.2 °F 84% 30.16 in 4.0 mi SSE 6.9 mph - 0.00 in Snow Light Snow
9:53 PM -6.0 °F -20.1 °F -11.0 °F 79% 30.32 in 3.0 mi SSE 6.9 mph - 0.00 in Snow Light Snow
10:00 PM -6.0 °F -18.6 °F -11.0 °F 79% 30.15 in 2.0 mi South 5.8 mph - 0.00 in Snow Light Snow
10:13 PM -6.0 °F -18.6 °F -11.0 °F 79% 30.16 in 1.5 mi South 5.8 mph - 0.00 in Snow Light Snow
10:27 PM -7.1 °F -18.1 °F -11.9 °F 79% 30.16 in 2.0 mi South 4.6 mph - 0.00 in Snow Light Snow
10:38 PM -8.0 °F -21.0 °F -11.9 °F 83% 30.16 in 4.0 mi South 5.8 mph - 0.00 in Snow Light Snow
10:53 PM -8.0 °F -22.5 °F -11.9 °F 83% 30.30 in 3.0 mi South 6.9 mph - 0.00 in Snow Light Snow
11:53 PM -7.1 °F - -11.0 °F 83% 30.30 in 7.0 mi Calm Calm - 0.00 in   Overcast